STARLINK-31862, 59786

Orbit data source: Space-Track

STARLINK-31862, 59786 is a payload satellite owned by SpaceX/Seattle (US) in LEO that was launched on Sat, 18 May 2024 UTC via an FALCON 9 launch vehicle from the Air Force Eastern Test Range (AFETR). Payload-class satellites include a variety of spacecraft equipped with specific instruments for various scientific and technological missions. These include communications satellites like Starlink; space stations such as the ISS; scientific satellites like the Hubble; Earth observation satellites from companies like Planet Labs, Umbra, and HawkEye 360; GPS; miniature CubeSats for education and research; and military/defense satellites.

Loading next visibility...
Identifier
59786, 2024-093E
Orbit
LEO
Country
Flag of USUS
Related business
Manufacturer
SpaceX/Seattle
Mission
Operational Commercial Communications
Bus & Motor
STARLINK V2M, Unknown motor
Mass
730 kg wet, ~700 kg dry
Launch date (UTC)
2024-05-18 (2 years ago)
Launch vehicle
FALCON 9
Launch site
Air Force Eastern Test Range (AFETR)
Object type
Payload
Rocket body
Debris
Shape & HBR
Box + 2 Pan, 17.7 m
Radar Cross Section
33.884 m², Large (>1 m²)

Expand to show TLE details & history
Last TLE update: 1 day ago

TLE from 1 day ago
0 STARLINK-31862
1 59786U 24093E   26162.93997913 -.00000378  00000-0 -42070-5 0  9998
2 59786  43.0019  36.2913 0001225 272.1463  87.9248 15.27576128117116
Epoch: 2026-06-11T22:33Z
TLE epoch observation values (Epoch: 2026-06-11T22:33:34.196Z)
Latitude
-0.00006°
Longitude
157.62218°
Altitude
482.806 km
Speed
7.626 km/s
True Right ascension
02h 25m 09s
True Declination
0° 00' 00"
Sunlit
Object was in daylight at epoch
Visualization orbit readout
Latitude
Unknown
Longitude
Unknown
Altitude
Unknown
Speed
Unknown
Apparent Right ascension
Unknown
Apparent Declination
Unknown
Sunlit
N/A
Visualization observer readout
Local Sidereal Time
11:50:27
Azimuth
Unknown
Elevation
Unknown
Doppler factor
Unknown
Orbital elements
Apogee altitude
485.846 km
Perigee altitude
484.165 km
Semi-major axis
6,863.143 km
Eccentricity
0.00012
Inclination
43.0019°
RAAN
36.2913°
Arg. of periapsis
272.1463°
True anomaly
87.93883°
Mean anomaly
87.9248°
Eccentric anomaly
87.93181°
Mean motion
3.81732 °/min
Orbital period
94.31 mins
BSTAR
-0.000004207
Loading maneuver chart data...
Computing Atmospheric mass density...
Loading historical data...
Loading historical data...
Loading historical data...
Loading historical data...
Loading historical data...
Loading historical data...
Loading historical data...

Documentation

Showing up to 5 results
|